Weather Roundup
Issued by NWS Springfield, MO

Home | Current Version | Previous Version | Text Only | Print | Product List | Glossary On
Versions: 1 2 3 4 5 6 7 8 9 10 11 12 13 14 15 16 17 18 19 20 21 22 23 24 25 26 27 28 29 30 31 32 33 34 35 36 37 38 39 40 41 42 43 44 45 46 47 48 49 50
000
NZUS99 KSGF 281707
HRRSGF

HOURLY WEATHER
NATIONAL WEATHER SERVICE SPRINGFIELD MO
1200 PM CDT THU MAY 28 2015

......SGF CWA......

CITY           SKY/WX    TMP DP  RH WIND       PRES   REMARKS
SPRINGFIELD    CLOUDY    76  68  76 SE14      30.12S
JOPLIN         TSTM      68  63  84 W20G29    30.16R
WEST PLAINS    CLOUDY    73  66  78 S7        30.19S
ROLLA          CLOUDY    75  69  81 VRB5      30.13F
OSAGE BEACH    CLOUDY    72  68  88 SW5       30.12S THUNDER
BRANSON        CLOUDY    75  68  78 SE8       30.16S

......SURROUNDING SGF CWA......

CITY           SKY/WX    TMP DP  RH WIND       PRES   REMARKS
CHANUTE        TSTM      67  65  93 S13       30.12S
PARSONS        HVY RAIN  66  65  96 S6        30.14S FOG
COFFEYVILLE    RAIN      66  66 100 CALM      30.12F FOG
EMPORIA        CLOUDY    68  64  87 SE15      30.06S
GROVE OK       TSTM      68  68 100 W5        30.14R
ROGERS AR      CLOUDY    72  69  90 SE6       30.14R
SILOAM SPRINGS CLOUDY    70  63  78 SW8       30.15R
HARRISON AR    CLOUDY    75  69  81 S9        30.16S
NEAR YELLVILLE CLOUDY    77  70  78 SE5       30.13S

......KANSAS AND MISSOURI......

CITY           SKY/WX    TMP DP  RH WIND       PRES   REMARKS
KANSAS CTY INT CLOUDY    67  64  90 SE9       30.09R
DOWNTOWN KC    CLOUDY    69  63  81 E7        30.08R
COLUMBIA       MOSUNNY   79  68  69 SE13      30.11F
SEDALIA        PTSUNNY   78  67  68 CALM      30.10F
ST JOSEPH      CLOUDY    69  64  84 SE10      30.06F
ST LOUIS       PTSUNNY   82  67  60 SE10      30.14S
SPIRIT OF STL  MOSUNNY   80  69  69 VRB6      30.12F
KIRKSVILLE     CLOUDY    76  63  64 SE12      30.13S
WICHITA        CLOUDY    70  65  84 S13       30.05R
TOPEKA         CLOUDY    68  64  87 SE14      30.08R
OLATHE         CLOUDY    70  65  84 E8        30.08S

......TENNESSEE......

CITY           SKY/WX    TMP DP  RH WIND       PRES   REMARKS
MEMPHIS        CLOUDY    77  66  68 VRB3      30.17R
NASHVILLE      PTSUNNY   77  66  68 SE7       30.21F

......ARKANSAS.......

CITY           SKY/WX    TMP DP  RH WIND       PRES   REMARKS
FAYETTEVILLE   LGT RAIN  70  68  93 CALM      30.13R
FT SMITH       RAIN      68  64  87 S8        30.10R FOG
LITTLE ROCK    PTSUNNY   81  66  60 SE6       30.14S

......OKLAHOMA.......

CITY           SKY/WX    TMP DP  RH WIND       PRES   REMARKS
TULSA          CLOUDY    68  65  90 SE9       30.07R
PONCA CITY     CLOUDY    71  67  87 SE14      30.08R
MCALESTER      LGT RAIN  68  66  93 SE6       30.11R
OKLAHOMA CITY  CLOUDY    72  65  78 SE10      30.07R

......IOWA............

CITY           SKY/WX    TMP DP  RH WIND       PRES   REMARKS
DES MOINES     CLOUDY    78  59  51 S17       30.09S
QUAD CITIES    SUNNY     80  55  42 SE15G22   30.14F

......ILLINOIS........

CITY           SKY/WX    TMP DP  RH WIND       PRES   REMARKS
QUINCY         CLOUDY    77  57  50 SE13      30.14R
CHICAGO        PTSUNNY   79  54  41 SE9       30.19F




USA.gov is the U.S. government's official web portal to all federal, state and local government web resources and services.